Погода в Старице

Погода в Старице : погода сейчас, прогноз погоды и архив. Всё, что Вы хотите узнать о погоде в Старице!

Поиск расширенной информации на нашем сайте:

Другие новости

Новости СМИ2

Главная страница сайта

Новости сайта

03.07.2017

Напоминаем, что на нашем специализированном сайте Метеоцентр.Азия вы можете получить высокодетализированные автоматические прогнозы погоды по пунктам России, СНГ и мира в авиационном формате (включающие направление и скорость ветра, видимость, явления погоды, количество и форму облачности, нижнюю и верхнюю границу облачности).


Погода в Старице - сегодня

Время (UTC), дата Ветер
(°,м/с) 
Видим.   Явления Облачность Т
(°С)
Тd
(°С)
f(%) Тe
(°С)
Pmin
(гПа)
dP
(гПа)
Po
(мм)
O2
(г/м3)
Тmin Tmax R s Состояние
почвы
21 17.10.18 210 (ЮЗ) 10 км    ясно 
+3.3 +2.6 95 +4  1025.4  -0.2  752  299           
00 18.10.18 220 (ЮЗ) 10 км  туман поземный  ясно 
+2.3 +1.8 96 +3  1024.8  -0.7  751  300           
09 18.10.18 240 (ЮЗ) 10 км    ясно 
+13.7 +6.6 62 +14  1021.8  -0.5  750  287           
12 18.10.18 230 (ЮЗ) 10 км    ясно 
+16.3 +6.3 52 +16  1020.1  -1.4  749  284           
15 18.10.18 220 (ЮЗ) 10 км    3/0 верхняя 
[Ci fib]
+12.7 +5.8 63 +13  1019.2  -1.1  748  287           
21 18.10.18 190 (Ю) 10 км    ясно 
+9.1 +6.4 83 +9  1017.6  -0.9  746  290           
00 19.10.18 200 (Ю) 10 км    ясно 
+8.8 +7.2 90 +8  1016.5  -1.1  746  290           
06 19.10.18 240 (ЮЗ) 0200 м  туман  5/5 300 м 
[Sc]
+8.6 +8.6 100 +10  1015.9  0.2  745  290  +6.6        сухая 
09 19.10.18 310 (СЗ) 10 км  слаб. ливневой дождь{туман}  9/4 300 м кучево-дожд., средняя 
[Cb cap|Ac und]
+13.1 +8.6 74 +13  1016.2  0.7  746  285           
15 19.10.18 260 (З) 10 км    1/1 2000 м средняя 
[Ac trans]
+8.2 +5.7 84 +9  1017.7  0.5  746  291      0.0     
21 19.10.18 310 (СЗ) 10 км    ясно 
+1.6 +0.8 94 +2  1020.1  0.8  748  299           
00 20.10.18 290 (З) 10 км    ясно 
+2.1 +0.6 90 +1  1020.4  0.3  748  299           
03 20.10.18 180 (Ю) 10 км    ясно 
+0.5 -0.5 93 +1  1021  0.5  748  301  +0.4         
06 20.10.18 тихо ()   10 км  туман поземный  3/0 верхняя 
[Ci fib]
+2.3 +1.6 95 +2  1021.8  0.9  749  299  -1        сухая 
09 20.10.18 310 (СЗ) 20000 м    9/9 600 м 
[Cu Sc]
+7.9 +2.9 71 +8  1022.2  0.9  750  293           
12 20.10.18 360 (С) 20000 м    9/9 600 м 
[Sc]
+9.1 +2.1 62 +10  1022  -0.2  749  292           
15 20.10.18 160 (Ю) 20000 м    9/9 600 м 
[Sc]
+7 +2.3 72 +8  1022  0.1  749  294           
21 20.10.18 тихо ()   10 км    9/9 600 м 
[Sc]
+3.4 +1.9 90 +3  1023.5  0.6  750  298           
00 21.10.18 330 (СЗ) 10 км    10/10 300 м 
[St]
+3.3 +2.2 92 +4  1023.9  0.3  751  298           
09 21.10.18 360 (С) 20000 м    9/9 600 м 
[Sc]
+7.4 +2.7 72 +8  1026.1  0.9  752  295           
12 21.10.18 160 (Ю) 20000 м    9/9 600 м 
[Cu Sc]
+8.5 +0.8 58 +10  1025.9  -0.1  752  294           
15 21.10.18 280 (З) 20000 м    9/9 600 м 
[Sc]
+7 +1.3 67 +8  1026  0.1  752  295           
21 21.10.18 230 (ЮЗ) 10 км    3/3 2000 м средняя 
[Ac trans]
+3.1 -1.3 73 +3  1026.5  -0.4  752  300           
00 22.10.18 220 (ЮЗ) 10 км    1/1 2000 м средняя 
[Ac trans]
+0.2 -1.6 88 -1  1026.1  -0.6  752  303           
03 22.10.18 210 (ЮЗ) 10 км    ясно 
-0.9 -1.7 94 -3  1024.8  -1.4  751  304  -1.1         
Время (UTC), дата Ветер
(°,м/с) 
Видим.   Явления Облачность Т
(°С)
Тd
(°С)
f(%) Тe
(°С)
Pmin
(гПа)
dP
(гПа)
Po
(мм)
O2
(г/м3)
Тmin Tmax R s Состояние
почвы

Для получения пояснительной информации подведите курсор к названию столбца.

ПОГОДА в Старице - архив

Всё, что Вы хотите узнать о погоде в Старице - удобно и подробно!

Выберите нужную дату (начиная с 1 января 2015* года) и нажмите кнопку "Найти".
Будут отображены архивные сводки погоды по пункту Старица, начиная с указанной даты.


Отображать данные в формате CSV (для использования в таблицах Excel)


Внимание! Наш архив погоды предназначен исключительно для личного некоммерческого использования в познавательных целях. Если Вам необходимы официальные справки о состоянии погоды (для производственных, юридических, коммерческих и т.п. целей), обращайтесь в органы Росгидромета.

*Примечание: данная дата относится к архиву по метеостанциям СССР (Россия, СНГ, Балтия).
Архив по метеостанциям Зарубежной Европы и Азии (кроме Китая) хранится 10 дней, по другим регионам земного шара (Китай, Африка, Америка, Австралия, Океания) - 1 день.

Старица - район местоположения метеостанции


Название, широта, долгота, высота метеостанции:
Старица 56.5°ш. 34.9°д. 181 м над ур. моря [Российская Федерация]

Дополнительная информация

В oтличие oт бoльшинства пoгoдных сайтoв мы публикуем пoдрoбную метеoинфoрмацию в детальнoм прoфессиoнальнoм фoрмате.

Характеристики температуры и влажнoсти вoздуха измеряются на высoте 2 м в тени вдали oт зданий и деревьев.
Скoрoсть ветра измеряется на высoте 10 м (на урoвне рoста челoвека скoрoсть ветра ниже в 1.5-2 раза). Если метеoстанция нахoдится в гoрoде или в лесу, тo скoрoсть ветра занижена на 2-4 м/с пo сравнению с oткрытым местoм. Скoрoсть ветра над акватoриями крупных рек и oзёр, а также на вершинах хoлмoв на 2-5 м/с выше, чем в oбычных услoвиях.
Атмoсфернoе давление в разных тoчках местнoсти мoжет значительнo oтличаться oт давления на метеoстанции, в зависимoсти oт услoвий рельефа (при пoдъёме на 10 м давление пoнижается примернo на 1 мм рт.ст.).